[[{"header":{"parameterUnit":"m.s-1","parameterCategory":1,"la1":30.2991,"la2":30.254,"lo1":-89.0895,"lo2":-89.0444,"dy":0.0017,"dx":0.0017,"nx":28,"ny":28,"refTime":"2025-09-05T09:00:00:Z","depth":0,"parameterNumber":2,"parameterNumberName":"U-component_of_WINDS"},"data":[0,0,0,0,0,0,0,0,0,0,0,0,0,0,0,0,0,0,0,0,0,0,0,0,0,0,0,0,0,0,0,0,0,0,0,0,0,0,0,0,0,0,0,0,0,0,0,0,0,0,0,0,0,0,0,0,0,0,-1.9576,-1.9575,0,-1.9542,-1.9541,-1.9541,-1.9497,-1.9496,-1.9495,-1.9495,-1.9459,-1.9458,-1.9458,0,0,0,0,0,0,0,0,0,0,0,0,0,-1.9603,-1.9603,-1.9576,-1.9575,-1.9575,-1.9542,-1.9541,-1.9541,-1.9497,-1.9496,-1.9495,-1.9494,-1.9459,-1.9458,-1.9458,0,0,0,0,0,0,0,0,0,0,0,0,0,-1.9582,-1.9602,-1.9576,-1.9549,-1.9546,-1.9542,-1.9541,-1.9541,-1.9497,-1.9496,-1.9495,-1.9494,-1.9459,-1.9458,-1.9458,-1.9476,0,0,-1.9456,-1.9456,0,0,0,0,0,0,0,0,-1.9583,-1.9581,-1.9553,-1.9551,-1.9548,-1.9523,-1.9538,-1.9519,-1.9497,-1.9516,-1.9495,-1.9494,-1.9481,-1.9478,-1.9474,-1.9475,-1.9473,-1.9456,-1.9456,-1.9456,-1.9456,0,0,0,0,0,0,0,-1.9585,-1.9582,-1.9562,-1.9553,-1.955,-1.9539,-1.9535,-1.9534,-1.9505,-1.9514,-1.9511,-1.9508,-1.9479,-1.9475,-1.9473,-1.9473,-1.9456,-1.9456,-1.9456,-1.9456,-1.9489,-1.949,0,0,0,0,0,0,-1.959,-1.9584,-1.9563,-1.9561,-1.9563,-1.9539,-1.9535,-1.9532,-1.9504,-1.9499,-1.9508,-1.9506,-1.9476,-1.9474,-1.9472,-1.9492,-1.9456,-1.9456,-1.9455,-1.9488,-1.9489,-1.949,0,0,0,0,0,0,-1.9591,-1.9589,-1.9565,-1.9572,-1.9568,-1.954,-1.9537,-1.9532,-1.9527,-1.95,-1.9495,-1.951,-1.9475,-1.9472,-1.9476,-1.949,-1.9455,-1.9455,-1.9486,-1.9488,-1.949,-1.9533,0,0,0,0,0,0,-1.9592,-1.959,-1.9596,-1.9572,-1.9568,-1.957,-1.9538,-1.9532,-1.9527,-1.9523,-1.95,-1.9495,-1.9474,-1.9477,-1.9476,-1.9489,-1.9455,-1.9485,-1.9487,-1.9489,-1.9531,-1.9536,-1.9542,0,0,0,0,0,-1.9593,-1.9609,-1.9597,-1.9594,-1.9575,-1.9571,-1.9568,-1.9544,-1.9528,-1.9535,-1.9518,-1.9496,-1.949,-1.9478,-1.9476,-1.9489,-1.9484,-1.9486,-1.9489,-1.9528,-1.9535,-1.9541,0,0,0,0,0,0,-1.9634,-1.9605,-1.9591,-1.96,-1.9588,-1.9563,-1.957,-1.9552,-1.9544,-1.954,-1.9511,-1.9506,-1.9514,-1.9502,-1.949,-1.9507,-1.9483,-1.9486,-1.9514,-1.9521,-1.9526,-1.9528,-1.9454,0,0,0,0,0,-1.9644,-1.9643,-1.9618,-1.9628,-1.9623,-1.9598,-1.9595,-1.9578,-1.9564,-1.9559,-1.9542,-1.953,-1.9525,-1.9522,-1.9516,-1.9529,-1.9524,-1.9538,-1.9544,-1.9548,-1.955,-1.9557,-1.9563,-1.9499,-1.9499,-1.9499,0,0,-1.9665,-1.9649,-1.965,-1.9636,-1.9625,-1.9624,-1.9594,-1.9594,-1.9594,-1.9559,-1.9562,-1.9549,-1.9534,-1.9543,-1.9546,-1.9533,-1.9567,-1.9551,-1.9555,-1.9555,-1.9561,-1.9567,-1.9572,-1.9501,-1.95,-1.95,0,0,-1.9702,-1.969,-1.9697,-1.9688,-1.9672,-1.9655,-1.9658,-1.9636,-1.9627,-1.9629,-1.9604,-1.9603,-1.9595,-1.9585,-1.958,-1.9617,-1.9596,-1.9616,-1.9643,-1.9651,-1.9656,-1.966,-1.9674,-1.9679,-1.9618,-1.9618,-1.9618,0,-1.9729,-1.9727,-1.9703,-1.9706,-1.9701,-1.9671,-1.9679,-1.967,-1.9653,-1.9651,-1.9637,-1.9629,-1.9616,-1.9622,-1.9632,-1.9628,-1.963,-1.9617,-1.9657,-1.9661,-1.9665,-1.9677,-1.9683,-1.962,-1.962,-1.962,-1.962,0,-1.9762,-1.9762,-1.977,-1.9755,-1.9751,-1.9756,-1.9734,-1.9733,-1.9717,-1.9702,-1.9706,-1.9691,-1.9682,-1.9682,-1.9666,-1.9687,-1.968,-1.9663,-1.9638,-1.9674,-1.9685,-1.969,-1.9624,-1.9623,-1.9622,-1.9622,0,0,-1.9821,-1.9795,-1.9799,-1.9792,-1.9774,-1.9773,-1.9778,-1.977,-1.977,-1.9761,-1.9764,-1.976,-1.9744,-1.9737,-1.972,-1.9727,-1.9758,-1.9709,-1.9708,-1.9718,-1.9781,-1.9794,-1.98,-1.9745,-1.9746,-1.9747,-1.9783,0,-1.9854,-1.986,-1.984,-1.9852,-1.9852,-1.9825,-1.9829,-1.9819,-1.9806,-1.9804,-1.979,-1.9787,-1.9767,-1.9763,-1.9768,-1.9753,-1.977,-1.975,-1.9748,-1.9748,-1.9752,-1.9806,-1.9819,-1.9853,-1.9787,-1.9787,-1.9788,0,-1.9893,-1.9887,-1.9899,-1.9881,-1.9881,-1.9885,-1.9877,-1.9876,-1.9864,-1.9854,-1.9849,-1.983,-1.9834,-1.9812,-1.9817,-1.9804,-1.9802,-1.9795,-1.9796,-1.9794,-1.9769,-1.9805,-1.9863,-1.9868,-1.9795,-1.9794,-1.9794,0,-1.9935,-1.993,-1.9936,-1.9932,-1.9912,-1.9916,-1.9908,-1.9895,-1.9892,-1.9886,-1.9884,-1.9878,-1.9874,-1.9871,-1.9851,-1.9837,-1.9859,-1.9835,-1.9851,-1.9851,-1.9855,-1.9855,-1.9914,-1.9856,-1.9856,-1.9856,-1.9856,0,-1.9974,-1.9982,-1.9955,-1.9959,-1.9968,-1.9945,-1.9955,-1.9944,-1.9934,-1.9936,-1.9912,-1.9914,-1.9889,-1.9888,-1.9873,-1.988,-1.9879,-1.9871,-1.9867,-1.9873,-1.9874,-1.987,-1.9867,-1.9857,-1.9857,-1.9856,-1.9856,0,-2.0021,-2.0004,-2.0009,-1.9991,-1.9987,-1.9994,-1.9979,-1.9982,-1.9969,-1.9972,-1.9971,-1.995,-1.9949,-1.993,-1.9923,-1.9913,-1.9927,-1.9918,-1.9931,-1.9928,-1.9945,-1.9943,-2.0002,-2.0009,-1.9948,-1.9948,-1.9949,0,-2.0047,-2.0053,-2.0036,-2.0036,-2.0029,-2.0029,-2.0027,-2.0006,-2.0004,-1.9993,-1.9998,-1.9995,-1.9991,-1.999,-1.9975,-1.9971,-1.9962,-1.9983,-1.996,-1.9967,-1.9962,-1.9961,-1.9962,-1.9987,-1.9988,-1.9988,-1.9989,0,-2.0094,-2.0085,-2.0083,-2.0078,-2.0076,-2.0071,-2.0065,-2.0066,-2.0043,-2.0043,-2.0042,-2.0039,-2.0034,-2.0032,-2.0026,-2.0017,-2.0,-1.9997,-2.0,-2.0005,-2.0012,-2.0009,-1.9943,-1.9995,-1.9994,-1.9994,-1.9993,-1.9993,-2.0131,-2.0135,-2.0125,-2.0123,-2.0117,-2.0112,-2.0114,-2.0103,-2.0101,-2.0096,-2.0084,-2.0085,-2.0075,-2.0065,-2.0059,-2.0059,-2.0048,-2.0053,-2.0055,-2.0056,-2.0059,-2.0014,-2.0058,-2.0058,-2.0058,-2.0058,-2.0058,0,-2.0176,-2.0169,-2.0168,-2.016,-2.016,-2.0145,-2.0137,-2.0138,-2.0139,-2.0132,-2.0129,-2.0129,-2.0127,-2.0113,-2.0109,-2.0113,-2.0105,-2.0112,-2.0111,-2.011,-2.0069,-2.0066,-2.0119,-2.0119,-2.0119,-2.0119,-2.0119,-2.0119,-2.02,-2.0207,-2.0198,-2.0202,-2.0194,-2.0196,-2.0193,-2.0189,-2.0183,-2.0184,-2.0182,-2.0173,-2.0163,-2.016,-2.0158,-2.0153,-2.0153,-2.0164,-2.0157,-2.0119,-2.0113,-2.0107,-2.0104,-2.0164,-2.0164,-2.0197,-2.0198,-2.0198]},{"header":{"parameterUnit":"m.s-1","parameterCategory":1,"la1":30.2991,"la2":30.254,"lo1":-89.0895,"lo2":-89.0444,"dy":0.0017,"dx":0.0017,"nx":28,"ny":28,"refTime":"2025-09-05T09:00:00:Z","depth":0,"parameterNumber":3,"parameterNumberName":"V-component_of_WINDS"},"data":[0,0,0,0,0,0,0,0,0,0,0,0,0,0,0,0,0,0,0,0,0,0,0,0,0,0,0,0,0,0,0,0,0,0,0,0,0,0,0,0,0,0,0,0,0,0,0,0,0,0,0,0,0,0,0,0,0,0,3.3818,3.3818,0,3.3798,3.3798,3.3797,3.3841,3.3843,3.3844,3.3845,3.3817,3.3815,3.3813,0,0,0,0,0,0,0,0,0,0,0,0,0,3.3889,3.3887,3.3818,3.3818,3.3818,3.3798,3.3798,3.3797,3.3841,3.3843,3.3844,3.3846,3.3818,3.3815,3.3813,0,0,0,0,0,0,0,0,0,0,0,0,0,3.3862,3.3887,3.3818,3.3837,3.3839,3.3798,3.3798,3.3797,3.384,3.3843,3.3845,3.3847,3.3818,3.3815,3.3812,3.375,0,0,3.3803,3.3801,0,0,0,0,0,0,0,0,3.3863,3.3859,3.3835,3.3836,3.3838,3.3824,3.3812,3.3781,3.384,3.384,3.3845,3.3848,3.3817,3.3814,3.3805,3.3749,3.3747,3.3802,3.38,3.3799,3.3798,0,0,0,0,0,0,0,3.3865,3.386,3.381,3.3834,3.3836,3.3845,3.3843,3.3806,3.3816,3.384,3.3843,3.384,3.3818,3.3808,3.3805,3.3747,3.3802,3.38,3.3798,3.3796,3.3638,3.3636,0,0,0,0,0,0,3.3866,3.3862,3.3811,3.3809,3.3856,3.3842,3.384,3.3826,3.3817,3.3818,3.3839,3.3842,3.3813,3.3809,3.3804,3.3731,3.3799,3.3796,3.3794,3.364,3.3637,3.3635,0,0,0,0,0,0,3.3867,3.3861,3.3812,3.3836,3.3831,3.3838,3.3822,3.3825,3.3815,3.3816,3.3817,3.3827,3.3814,3.3809,3.3764,3.373,3.3795,3.3792,3.3643,3.3639,3.3636,3.3583,0,0,0,0,0,0,3.3869,3.3861,3.3839,3.3836,3.3829,3.3773,3.382,3.3823,3.381,3.3815,3.3806,3.3806,3.3815,3.3768,3.3761,3.3727,3.3789,3.3646,3.3641,3.3637,3.3588,3.3578,3.357,0,0,0,0,0,3.3871,3.3823,3.3837,3.3831,3.3802,3.3771,3.3767,3.3781,3.3808,3.3784,3.3785,3.3806,3.3736,3.3763,3.3755,3.372,3.3648,3.3643,3.3638,3.3592,3.358,3.357,0,0,0,0,0,0,3.3818,3.3823,3.3839,3.3789,3.378,3.3779,3.375,3.3768,3.375,3.3755,3.3771,3.3768,3.372,3.3716,3.3746,3.366,3.3696,3.3689,3.3664,3.3653,3.3644,3.3646,3.3787,0,0,0,0,0,3.3802,3.3778,3.3782,3.3737,3.3732,3.3742,3.3729,3.3741,3.3731,3.3726,3.3724,3.3711,3.3687,3.367,3.3647,3.3588,3.3586,3.356,3.3551,3.3544,3.3537,3.3506,3.3494,3.3618,3.3618,3.3618,0,0,3.3765,3.3765,3.3748,3.3727,3.3721,3.3695,3.3738,3.3708,3.3688,3.3721,3.3679,3.3677,3.3664,3.3612,3.3589,3.3607,3.3503,3.3537,3.3531,3.3529,3.3499,3.3487,3.3477,3.3614,3.3615,3.3615,0,0,3.3686,3.3684,3.3646,3.3641,3.3633,3.364,3.3631,3.3627,3.3628,3.3587,3.3611,3.3586,3.3543,3.3534,3.3523,3.3441,3.3459,3.3433,3.3386,3.3355,3.3345,3.3337,3.3307,3.3297,3.3426,3.3426,3.3426,0,3.3641,3.3605,3.3624,3.3593,3.3582,3.3614,3.3576,3.3568,3.3552,3.3543,3.3564,3.3512,3.3505,3.3452,3.3432,3.3422,3.3411,3.3434,3.3346,3.3337,3.333,3.3302,3.329,3.3423,3.3424,3.3424,3.3424,0,3.355,3.3524,3.3494,3.3481,3.3467,3.3432,3.3445,3.3428,3.3441,3.3445,3.3403,3.3397,3.3373,3.3362,3.3373,3.3309,3.3321,3.3344,3.338,3.3314,3.3288,3.3278,3.3419,3.342,3.3421,3.3421,0,0,3.3435,3.3435,3.3424,3.3418,3.3413,3.3392,3.3358,3.3338,3.3323,3.3311,3.3282,3.3246,3.3267,3.3255,3.3266,3.3239,3.3175,3.3265,3.3265,3.3248,3.3103,3.3086,3.3073,3.3187,3.3185,3.3184,3.3104,0,3.3357,3.3302,3.3319,3.3262,3.3238,3.3268,3.3239,3.3231,3.3234,3.3212,3.3215,3.3189,3.322,3.3212,3.3187,3.3188,3.3146,3.3194,3.3159,3.3157,3.3161,3.306,3.3041,3.2966,3.3094,3.3093,3.3091,0,3.3257,3.3244,3.3186,3.3186,3.3176,3.315,3.3133,3.3113,3.3104,3.3108,3.3095,3.3112,3.3077,3.3115,3.3066,3.3099,3.3086,3.3084,3.3081,3.3077,3.312,3.3053,3.2943,3.2931,3.3075,3.3077,3.3078,0,3.3179,3.3147,3.3108,3.3103,3.3101,3.3082,3.3079,3.3073,3.3061,3.3045,3.3037,3.3017,3.3005,3.2988,3.2998,3.3025,3.2948,3.2986,3.2948,3.2948,3.293,3.2931,3.2815,3.2922,3.2922,3.2923,3.2923,0,3.3089,3.3052,3.3074,3.305,3.3009,3.3028,3.2986,3.2987,3.2982,3.2957,3.2982,3.2957,3.2973,3.2949,3.2957,3.2915,3.291,3.2911,3.2913,3.2908,3.2908,3.2899,3.2904,3.292,3.292,3.2921,3.2921,0,3.2995,3.3008,3.2968,3.297,3.297,3.294,3.2941,3.2918,3.2924,3.2892,3.2886,3.2893,3.2867,3.2876,3.2847,3.2852,3.2799,3.2808,3.2803,3.2805,3.2766,3.277,3.2641,3.2624,3.2742,3.2741,3.274,0,3.2936,3.2909,3.291,3.2896,3.2893,3.2871,3.2859,3.2877,3.2863,3.2852,3.2829,3.2806,3.2788,3.2745,3.2746,3.2724,3.2733,3.2689,3.2729,3.2726,3.2732,3.2733,3.273,3.2681,3.2679,3.2678,3.2677,0,3.2831,3.2839,3.2822,3.2807,3.2793,3.2781,3.2772,3.2759,3.2776,3.2758,3.2734,3.272,3.2692,3.2668,3.2649,3.2644,3.2663,3.2665,3.2655,3.2649,3.2647,3.2648,3.278,3.2667,3.2668,3.2669,3.267,3.267,3.2752,3.273,3.2727,3.2707,3.2703,3.2693,3.2672,3.2677,3.2657,3.2637,3.2649,3.2619,3.2611,3.2588,3.2581,3.2557,3.2573,3.2559,3.2555,3.2551,3.2546,3.2652,3.2553,3.2553,3.2554,3.2554,3.2554,0,3.2648,3.2648,3.263,3.2617,3.2601,3.2624,3.2614,3.2599,3.2574,3.2566,3.2549,3.252,3.2498,3.2498,3.2477,3.2457,3.2465,3.2451,3.2452,3.2451,3.2533,3.2543,3.2445,3.2445,3.2445,3.2445,3.2445,3.2445,3.2592,3.2555,3.2563,3.2524,3.2524,3.2498,3.249,3.2481,3.2476,3.2444,3.2426,3.2428,3.2423,3.2401,3.2381,3.2382,3.2372,3.2354,3.2358,3.2434,3.2445,3.2455,3.2465,3.2352,3.2352,3.2278,3.2277,3.2277]}]]